NOAA 16 DEB, 41221

Orbit data source: Space-Track

NOAA 16 DEB, 41221 is space debris in SSO originally from a launch on Thu, 21 Sep 2000 UTC launched from the Air Force Western Test Range (AFWTR). Debris objects in space refer to the collection of defunct objects orbiting the Earth. Examples of debris include non-operational satellites, rocket bodies, and fragments generated from explosions, collisions, or faulty payload assembly.

Loading next visibility...
Identifier
41221, 2000-055EA
Orbit
SSO
Country
Flag of USUS
Related business
Manufacturer
Unknown
Mission
Spacecraft
Bus & Motor
Unknown
Mass
Unknown
Launch date (UTC)
2000-09-21 (26 years ago)
Launch vehicle
Unknown
Launch site
Air Force Western Test Range (AFWTR)
Object type
Payload
Rocket body
Debris
Shape & HBR
Unknown shape, 0.1 m
Radar Cross Section
Small (<0.1 m²)

Expand to show TLE details & history
Last TLE update: 15 hours ago

TLE from 15 hours ago
0 NOAA 16 DEB
1 41221U 00055EA  26206.61726842  .00004941  00000-0  11843-2 0  9999
2 41221  98.9811  93.7467 0039593 308.4294  51.3348 14.53507143554936
Epoch: 2026-07-25T14:48Z
TLE epoch observation values (Epoch: 2026-07-25T14:48:51.991Z)
Latitude
-0.00005°
Longitude
-71.7969°
Altitude
699.689 km
Speed
7.515 km/s
True Right ascension
06h 14m 59s
True Declination
0° 00' 00"
Sunlit
Object was in daylight at epoch
Visualization orbit readout
Latitude
Unknown
Longitude
Unknown
Altitude
Unknown
Speed
Unknown
Apparent Right ascension
Unknown
Apparent Declination
Unknown
Sunlit
N/A
Visualization observer readout
Local Sidereal Time
18:53:19
Azimuth
Unknown
Elevation
Unknown
Doppler factor
Unknown
Orbital elements
Apogee altitude
739.414 km
Perigee altitude
683.275 km
Semi-major axis
7,089.481 km
Eccentricity
0.00396
Inclination
98.9811°
RAAN
93.7467°
Arg. of periapsis
308.4294°
True anomaly
51.69015°
Mean anomaly
51.3348°
Eccentric anomaly
51.51237°
Mean motion
3.63598 °/min
Orbital period
99.01 mins
BSTAR
0.0011843
Loading maneuver chart data...
Computing Atmospheric mass density...

Documentation

Showing up to 5 results
|